Satellite: HRBE Catalog number: 37855 Epoch time: 14044.88322973 Element set: 717 Inclination: 101.7169 deg RA of node: 016.9703 deg Eccentricity: 0.0225776 Arg of perigee: 051.7165 deg Mean anomaly: 001.4911 deg Mean motion: 14.87269830 rev/day Decay rate: 1.3860e-04 rev/day^2 Epoch rev: 12433 Checksum: 305
Satellite: RS-39 Catalog number: 38051 Epoch time: 14044.86391356 Element set: 256 Inclination: 051.6306 deg RA of node: 116.2252 deg Eccentricity: 0.0009049 Arg of perigee: 052.9027 deg Mean anomaly: 062.5141 deg Mean motion: 15.44153640 rev/day Decay rate: 4.2871e-04 rev/day^2 Epoch rev: 11495 Checksum: 285
Satellite: E-STAR Catalog number: 38079 Epoch time: 14042.40348498 Element set: 741 Inclination: 069.4649 deg RA of node: 316.1670 deg Eccentricity: 0.0487029 Arg of perigee: 174.3865 deg Mean anomaly: 306.1435 deg Mean motion: 14.78370156 rev/day Decay rate: 8.8713e-04 rev/day^2 Epoch rev: 10467 Checksum: 333
Satellite: GOLIAT Catalog number: 38085 Epoch time: 14044.87364124 Element set: 804 Inclination: 069.4682 deg RA of node: 314.6647 deg Eccentricity: 0.0501098 Arg of perigee: 173.3122 deg Mean anomaly: 187.5064 deg Mean motion: 14.75057927 rev/day Decay rate: 7.9797e-04 rev/day^2 Epoch rev: 10490 Checksum: 330
Satellite: HORYU-2 Catalog number: 38340 Epoch time: 14044.80180906 Element set: 760 Inclination: 098.2466 deg RA of node: 000.0782 deg Eccentricity: 0.0011528 Arg of perigee: 203.3912 deg Mean anomaly: 156.6760 deg Mean motion: 14.71825031 rev/day Decay rate: 3.127e-05 rev/day^2 Epoch rev: 9364 Checksum: 274
Satellite: RS-40 Catalog number: 38735 Epoch time: 14044.60885209 Element set: 486 Inclination: 082.4766 deg RA of node: 004.5887 deg Eccentricity: 0.0016829 Arg of perigee: 160.3492 deg Mean anomaly: 199.8244 deg Mean motion: 12.42556320 rev/day Decay rate: 2.4e-07 rev/day^2 Epoch rev: 7023 Checksum: 311
Satellite: PROITERES Catalog number: 38756 Epoch time: 14044.84928715 Element set: 577 Inclination: 098.2329 deg RA of node: 131.1324 deg Eccentricity: 0.0013346 Arg of perigee: 061.2101 deg Mean anomaly: 299.0446 deg Mean motion: 14.74645129 rev/day Decay rate: 9.24e-06 rev/day^2 Epoch rev: 7700 Checksum: 296
Satellite: BEESAT-3 Catalog number: 39134 Epoch time: 14044.73398165 Element set: 500 Inclination: 064.8773 deg RA of node: 168.7149 deg Eccentricity: 0.0015400 Arg of perigee: 326.0504 deg Mean anomaly: 033.9625 deg Mean motion: 15.03017398 rev/day Decay rate: 1.1644e-04 rev/day^2 Epoch rev: 4509 Checksum: 291
Satellite: BEESAT-2 Catalog number: 39136 Epoch time: 14043.82576377 Element set: 490 Inclination: 064.8688 deg RA of node: 171.7376 deg Eccentricity: 0.0015968 Arg of perigee: 330.3734 deg Mean anomaly: 029.6469 deg Mean motion: 15.02669256 rev/day Decay rate: 9.958e-05 rev/day^2 Epoch rev: 4495 Checksum: 358
Satellite: CAPE-2 Catalog number: 39380 Epoch time: 14043.65554818 Element set: 87 Inclination: 040.5177 deg RA of node: 117.9943 deg Eccentricity: 0.0003367 Arg of perigee: 193.4443 deg Mean anomaly: 166.6259 deg Mean motion: 15.21758247 rev/day Decay rate: 7.170e-05 rev/day^2 Epoch rev: 1289 Checksum: 320
Satellite: TRLBLAZER Catalog number: 39382 Epoch time: 14044.49503507 Element set: 108 Inclination: 040.5046 deg RA of node: 111.0322 deg Eccentricity: 0.0004169 Arg of perigee: 088.2020 deg Mean anomaly: 271.8760 deg Mean motion: 15.27224123 rev/day Decay rate: 5.4726e-04 rev/day^2 Epoch rev: 1303 Checksum: 247
Satellite: ZACUBE-1 Catalog number: 39417 Epoch time: 14044.80801487 Element set: 218 Inclination: 097.7860 deg RA of node: 119.6426 deg Eccentricity: 0.0061684 Arg of perigee: 283.5591 deg Mean anomaly: 075.8706 deg Mean motion: 14.77443909 rev/day Decay rate: 2.465e-05 rev/day^2 Epoch rev: 1247 Checksum: 330
Satellite: TRITON-1 Catalog number: 39427 Epoch time: 14043.82542445 Element set: 70 Inclination: 097.7772 deg RA of node: 117.0209 deg Eccentricity: 0.0118424 Arg of perigee: 286.3378 deg Mean anomaly: 072.4842 deg Mean motion: 14.64819551 rev/day Decay rate: 2.183e-05 rev/day^2 Epoch rev: 1218 Checksum: 301
Satellite: DELFIN3XT Catalog number: 39428 Epoch time: 14043.83233354 Element set: 74 Inclination: 097.7765 deg RA of node: 116.7009 deg Eccentricity: 0.0129507 Arg of perigee: 286.7382 deg Mean anomaly: 071.9662 deg Mean motion: 14.62380883 rev/day Decay rate: 3.595e-05 rev/day^2 Epoch rev: 1215 Checksum: 321
Satellite: GOMX-1 Catalog number: 39430 Epoch time: 14044.79583554 Element set: 222 Inclination: 097.7717 deg RA of node: 116.8191 deg Eccentricity: 0.0157153 Arg of perigee: 285.2618 deg Mean anomaly: 073.1274 deg Mean motion: 14.56275309 rev/day Decay rate: 2.135e-05 rev/day^2 Epoch rev: 1225 Checksum: 300
Satellite: $50SAT Catalog number: 39436 Epoch time: 14044.39030271 Element set: 89 Inclination: 097.7885 deg RA of node: 120.2059 deg Eccentricity: 0.0028911 Arg of perigee: 297.4722 deg Mean anomaly: 062.3637 deg Mean motion: 14.85709842 rev/day Decay rate: 1.8722e-04 rev/day^2 Epoch rev: 1246 Checksum: 317
Satellite: PUCPSAT-1 Catalog number: 39442 Epoch time: 14044.71424344 Element set: 65 Inclination: 097.7905 deg RA of node: 120.5652 deg Eccentricity: 0.0034380 Arg of perigee: 291.7190 deg Mean anomaly: 068.0426 deg Mean motion: 14.85113901 rev/day Decay rate: 4.416e-05 rev/day^2 Epoch rev: 1129 Checksum: 277
/EX
participants (1)
-
Ray Hoad